This demonstration page uses our WeatherBlox Daily Observations layout. Learn more.

Left ArrowRight Arrow

38.20091, -84.87328

Hourly Observations for August 23, 2018

Temp ( °F °C ) Dew Point ( °F °C ) Humidity (%) Winds ( mph kmh ) Pressure ( in mb ) Visibility ( mi km ) Precip ( " mm )
12:53 am 00:53 Mostly Clear 59 15 57 13.9 93 93 Calm 30.12 1020 10 16 0.00 0.00
1:53 am 01:53 Clear 58 14.4 56 13.3 93 93 Calm 30.11 1020 10 16 0.00 0.00
2:53 am 02:53 Clear 57 13.9 56 13.3 96 96 Calm 30.10 1019 10 16 0.00 0.00
3:53 am 03:53 Clear 57 13.9 55 12.8 93 93 Calm 30.11 1020 10 16 0.00 0.00
4:53 am 04:53 Clear 56 13.3 54 12.2 93 93 Calm 30.11 1020 10 16 0.00 0.00
5:53 am 05:53 Clear 55 12.8 53 11.7 93 93 Calm 30.13 1020 10 16 0.00 0.00
6:53 am 06:53 Clear 54 12.2 52 11.1 93 93 Calm 30.14 1021 10 16 0.00 0.00
7:53 am 07:53 Sunny 56 13.3 54 12.2 93 93 Calm 30.16 1021 10 16 0.00 0.00
8:53 am 08:53 Sunny 63 17.2 57 13.9 81 81 VRB 3 6 30.18 1022 10 16 0.00 0.00
9:53 am 09:53 Sunny 68 20 57 13.9 68 68 NNE 3 6 30.18 1022 10 16 0.00 0.00
10:53 am 10:53 Sunny 72 22.2 57 13.9 59 59 ENE 6 9 30.18 1022 10 16 0.00 0.00
11:53 am 11:53 Sunny 74 23.3 54 12.2 50 50 Calm 30.19 1022 10 16 0.00 0.00
12:53 pm 12:53 Mostly Sunny 76 24.4 54 12.2 47 47 NNE 5 7 30.17 1022 10 16 0.00 0.00
1:53 pm 13:53 Sunny 77 25 54 12.2 45 45 E 5 7 30.15 1021 10 16 0.00 0.00
2:53 pm 14:53 Sunny 79 26.1 54 12.2 42 42 NW 5 7 30.14 1021 10 16 0.00 0.00
3:53 pm 15:53 Sunny 79 26.1 53 11.7 41 41 VRB 3 6 30.13 1020 10 16 0.00 0.00
4:53 pm 16:53 Sunny 79 26.1 54 12.2 42 42 VRB 5 7 30.11 1020 10 16 0.00 0.00
5:53 pm 17:53 Sunny 79 26.1 53 11.7 41 41 NW 5 7 30.11 1020 10 16 0.00 0.00
6:53 pm 18:53 Sunny 78 25.6 52 11.1 40 40 VRB 3 6 30.11 1020 10 16 0.00 0.00
7:53 pm 19:53 Sunny 74 23.3 57 13.9 56 56 E 5 7 30.11 1020 10 16 0.00 0.00
8:53 pm 20:53 Clear 67 19.4 59 15 76 76 Calm 30.11 1020 10 16 0.00 0.00
9:53 pm 21:53 Clear 63 17.2 58 14.4 84 84 Calm 30.13 1020 10 16 0.00 0.00
10:53 pm 22:53 Clear 62 16.7 58 14.4 86 86 Calm 30.12 1020 10 16 0.00 0.00
11:53 pm 23:53 Clear 61 16.1 57 13.9 87 87 Calm 30.12 1020 10 16 0.00 0.00

Powered by AerisWeather